Location: Azul
(36.7830°S, 59.8500°W)
Time: 01:52:47
(UTC-03:00)

BEESAT 3 - Visible Passes

Search period start: 23 October 2021 00:00
Search period end: 02 November 2021 00:00
Orbit: 481 x 510 km, 64.9° (Epoch: 22 October)

Date Brightness Start Highest point End Pass type
(mag) Time Alt. Az. Time Alt. Az. Time Alt. Az.
23 Oct ? 03:54:20 10° SSE 03:56:02 13° SE 03:57:43 10° ESE visible
23 Oct ? 05:29:52 10° SW 05:33:33 51° WNW 05:37:09 10° NNE visible
23 Oct ? 20:52:18 10° W 20:54:51 17° SW 20:57:25 10° S visible
24 Oct ? 03:32:38 10° SSE 03:33:48 11° SE 03:34:58 10° ESE visible
24 Oct ? 05:07:40 10° SW 05:11:23 61° WNW 05:15:04 10° NNE visible
24 Oct ? 20:29:51 10° W 20:32:38 19° SW 20:35:26 10° S visible
25 Oct ? 04:45:29 10° SW 04:49:14 72° WNW 04:52:56 10° NNE visible
25 Oct ? 20:07:26 10° WNW 20:10:25 21° SW 20:13:25 10° S visible
26 Oct ? 04:23:17 10° SSW 04:27:04 85° WNW 04:30:47 10° NNE visible
27 Oct ? 04:01:06 10° SSW 04:04:53 82° ESE 04:08:37 10° NNE visible
28 Oct ? 03:38:55 10° SSW 03:40:17 21° SSW 03:40:17 21° SSW visible
29 Oct ? 03:16:45 10° SSW 03:16:45 10° SSW 03:16:45 10° SSW visible
